Location: Central Falls
(41.8900°N, 71.3929°W)
Time: 02:39:22
(UTC+00:00)

Vanguard 2 - Pass Details

Date: 06 December 2023
Orbit: 554 x 2918 km, 32.9° (Epoch: 01 March)

Event Time Altitude Azimuth Distance (km) Brightness Sun altitude
Rises 08:26:32 0° 271° (W) 5,257 - -38.7°
Reaches altitude 10° 08:34:11 10° 240° (WSW) 3,500 - -37.2°
Maximum altitude 08:35:50 11° 229° (SW) 3,277 - -36.9°
Drops below altitude 10° 08:37:23 10° 217° (SW) 3,163 - -36.6°
Sets 08:42:39 0° 180° (S) 3,562 - -35.7°
